Terminal Aerodrome Forecast
Issued by NWS Greer, SC

Home | Current Version | Previous Version | Text Only | Print | Product List | Glossary On
Versions: 1 2 3 4 5 6 7 8 9 10 11 12 13 14 15 16 17 18 19 20 21 22 23 24 25 26 27 28 29 30 31 32 33 34 35 36 37 38 39 40 41 42 43 44 45 46 47 48 49 50
000
FTUS42 KGSP 102300
TAFCLT
TAF
KCLT 102332Z 1100/1124 34004KT P6SM FEW060 SCT150
     FM110600 04003KT P6SM BKN080
     FM111300 04007KT P6SM FEW015 SCT090
     FM112000 10006KT P6SM BKN045=

USA.gov is the U.S. government's official web portal to all federal, state and local government web resources and services.